Погода в Эль-Генейне

Судан     13°26′17″N   22°26′22″E
В апреле 2022 года жителям России запретили посещать сайт meteo.paraplan.net по решению Генеральной прокуратуры. Аудитория сайта уменьшилась в 10 раз. Владельцы сайта не видят смысла в поддержке погодного сервера в таких условиях. Сайт будет закрыт в октябре.
темп.,
°C
ветер,
м/с
пор.,
м/с
влажн.,
%
обл.,
%
осадки,
мм/ч
давл.,
гПа
погр.,
м
25 сентября, вс
вс2523:00+25з36615 0.0 1010135
02:00+24зсз22635 0.0 101021
05:00+23зюз2363100 0.0 101028
08:00+25юз346112 0.0 1012201
11:00+30зюз3339100 0.0 1011932
14:00+33ююв122898 0.0 10082372
17:00+33з122896 0.0 10061462
20:00+30з223552 0.0 100731
26 сентября, пн
пн2623:00+26юз475777 0.0 1010224
02:00+25зюз5662100 0.0 1009153
05:00+24зюз126548 0.0 100921
08:00+26юв345721 0.0 1011246
11:00+30ююв4544100 0.0 10121165
14:00+33вюв133323 0.0 10082054
17:00+25вюв3661100 1.6 1010185
20:00+25зсз455524 1.9 1009129
27 сентября, вт
вт2723:00+26зюз3350100 0.1 101070
02:00+25ю4656100 0.1 1010142
05:00+24зюз225982 0.0 101018
08:00+26ю23555 0.0 1012230
11:00+31ю22410 0.0 1011940
14:00+34с24275 0.0 10082591
17:00+34ссв3424100 0.0 10062742
20:00+30ююв2231100 0.0 100820
28 сентября, ср
ср2823:00+24ю596887 0.0 1011304
02:00+24ююз1468100 0.1 1011185
05:00+23з357451 0.2 1011150
08:00+24зюз346843 0.2 1012280
11:00+29зюз4354100 0.0 10121020
14:00+32з2342100 0.0 10082449
17:00+23вюв131468100 1.0 1009470
20:00+21ююз7978100 7.4 1011232
29 сентября, чт
чт2923:00+22зсз3576100 0.1 1012183
02:00+23в116869 0.3 101014
05:00+22ююв237095 0.0 101044
08:00+23ю236947 0.3 1013259
11:00+28юв4553100 0.0 10131171
14:00+30ю4347100 0.0 10101408
17:00+29з565399 0.0 1008419
20:00+27зюз226096 0.0 100926